DMSP 5D-2 F13 DEB, 40436

Orbit data source: Space-Track

DMSP 5D-2 F13 DEB, 40436 is space debris in SSO originally from a launch on Fri, 24 Mar 1995 UTC launched from the Air Force Western Test Range (AFWTR). Debris objects in space refer to the collection of defunct objects orbiting the Earth. Examples of debris include non-operational satellites, rocket bodies, and fragments generated from explosions, collisions, or faulty payload assembly.

Loading next visibility...
Identifier
40436, 1995-015AN
Orbit
SSO
Last TLE update
18 hours ago
Origin
Manufacturer
Unknown
Mission
Spacecraft
Bus & Motor
Unknown
Mass
Unknown
Launch date (UTC)
1995-03-24 (30 years ago)
Launch vehicle
Unknown
Launch site
Air Force Western Test Range (AFWTR)
Object type
Payload
Rocket body
Debris
Shape & HBR
Unknown
Radar Cross Section
Small (<0.1 m²)

Expand to show TLE details & history

TLE from 18 hours ago
0 DMSP 5D-2 F13 DEB
1 40436U 95015AN  25128.52590654  .00000777  00000-0  75223-3 0  9994
2 40436  98.8745 232.3795 0231442 117.9861 244.4916 13.71177625508812
Epoch: 2025-05-08T12:37Z
Definitive object data (Epoch: 2025-05-08T12:37:18.325Z)
Latitude
-0.00002°
Longitude
176.45801°
Altitude
1,074.866 km
Speed
7.277 km/s
True Right ascension
15h 29m 31s
True Declination
0° 00' 00"
Sunlit
Object was in full shadow at TLE epoch
Visualization TLE readout
Latitude
42.93055°
Longitude
168.83334°
Altitude
946.847 km
Speed
7.41 km/s
Apparent Right ascension
18h 22m 07s
Apparent Declination
47° 53' 11"
Sunlit
Object is in full shadow
Visualization observer readout
Local Sidereal Time
14:29:35
Azimuth
59.03° ENE
Elevation
48.376°
Doppler factor
1
Orbital elements
Apogee altitude
1,163.165 km
Perigee altitude
821.987 km
Semi-major axis
7,370.713 km
Eccentricity
0.0231442
Inclination
98.8745°
RAAN
232.3795°
Arg. of periapsis
117.9861°
True anomaly
242.12813°
Mean anomaly
244.4916°
Eccentric anomaly
243.30686°
Mean motion
3.42988 °/min
BSTAR
0.00075223
Orbital period
104.96 mins
Loading maneuver chart data...
Loading SW <> Apogee altitude chart data...

DMSP 5D-2 F13 DEB Visibility forecast

Observer location: undefined°, undefined°

Span
Click to sort rows by Start time (UTC) header in descending order
Start Az.
Max El. time (UTC)
Max El. Az.
Max El.
End time (UTC)
End Az.
5 mins2025-05-09 06:20:45.868Z59.678° ENE2025-05-09 06:20:45.868Z59.678° ENE36.801°2025-05-09 06:25:45.868Z358.366° N
8 mins2025-05-09 08:00:45.868Z222.64° SW2025-05-09 08:03:45.868Z257.688° W21.721°2025-05-09 08:08:45.868Z316.846° NNW
7 mins2025-05-09 19:00:45.868Z47.048° ENE2025-05-09 19:03:45.868Z96.981° ESE28.093°2025-05-09 19:07:45.868Z154.837° SSE
7 mins2025-05-09 20:44:45.868Z337.242° NNW2025-05-09 20:47:45.868Z285.659° WNW26.524°2025-05-09 20:51:45.868Z235.398° WSW
|